Location: Rounton
(54.4000°N, 1.3500°W)
Time: 16:07:44
(UTC+01:00)

Altair - Visible Passes

Search period start: 27 May 2022 00:00
Search period end: 06 June 2022 00:00
Orbit: 1501 x 1683 km, 47.2° (Epoch: 26 May)

Date Brightness Start Highest point End Pass type
(mag) Time Alt. Az. Time Alt. Az. Time Alt. Az.
27 May 8.7 00:04:19 10° W 00:11:56 25° SW 00:17:23 16° S visible
27 May 8.6 23:39:00 10° W 23:46:52 27° SW 23:53:09 14° S visible
28 May 8.6 23:13:42 10° W 23:21:49 28° SW 23:28:58 13° S visible
29 May 8.6 22:48:26 10° W 22:56:44 30° SW 23:04:50 10° SSE visible
30 May 8.6 22:23:10 10° W 22:31:40 32° SW 22:40:07 10° SSE visible
01 Jun 9.3 00:06:03 10° WSW 00:08:47 11° WSW 00:11:32 10° SW visible
01 Jun 9.3 23:39:57 10° W 23:43:49 13° SW 23:47:40 10° SSW visible
02 Jun 9.3 23:14:08 10° W 23:18:49 14° SW 23:23:29 10° SSW visible
03 Jun 9.3 22:48:30 10° W 22:53:48 16° SW 22:59:08 10° SSW visible
04 Jun 9.3 22:22:57 10° W 22:28:49 17° SW 22:34:40 10° SSW visible
